Home   Weather   35°57'N, 87°07'W   Past weeks
Flag for USA

Past Weather in 35°57'N, 87°07'W, USA — Yesterday and Last 2 Weeks

Now
62 °F

Mostly cloudy.


Feels Like: 62 °F
Forecast: 65 / 51 °F
Wind: 16 mph from South

Location: Nashville International Airport

Current Time: Feb 23, 2019 at 5:26:27 pm

Latest Report: Feb 23, 2019 at 4:53 pm


Visibility: 10 mi

Pressure: 29.72 "Hg

Humidity: 86%

Dew Point: 58 °F

Location of 35°57'N, 87°07'WLocation

Past Weather in 35°57'N, 87°07'W — Graph

°F

35°57'N, 87°07'W Temperature Yesterday

Maximum temperature yesterday: 52 °F (at 11:53 pm)
Minimum temperature yesterday: 45 °F (at 2:53 am)
Average temperature yesterday: 48 °F

High & Low Weather Summary for the Past Weeks

 TemperatureHumidityPressure
High61 °F (Feb 12, 2:53 am)93% (Feb 12, 7:53 am)30.79 "Hg (Feb 12, 7:53 am)
Low22 °F (Feb 9, 4:53 am)25% (Feb 14, 3:53 pm)29.70 "Hg (Feb 12, 3:08 am)
Average45 °F75%30.09 "Hg
* Reported Feb 8 4:53 pm — Feb 23 4:22 pm, 35°57'N, 87°07'W. Weather by CustomWeather, © 2019

Note: Actual official high and low records may vary slightly from our data, if they occured in-between our weather recording intervals... More about our weather records

Advertising

35°57'N, 87°07'W Weather History for the Previous 24 Hours

Scroll right to see more
 ConditionsComfort  
Time TempWeatherWind HumidityBarometerVisibility
4:22 pm
Sat, Feb 23
61 °FLight rain. Cloudy.20 mph90%29.75 "Hg10 mi
3:53 pm61 °FMostly cloudy.20 mph87%29.76 "Hg10 mi
3:09 pm60 °FLight rain. Low clouds.15 mph86%29.81 "Hg8 mi
2:53 pm60 °FOvercast.18 mph83%29.82 "Hg10 mi
2:29 pm60 °FMostly cloudy.21 mph83%29.84 "Hg10 mi
1:53 pm60 °FOvercast.16 mph86%29.86 "Hg10 mi
1:11 pm59 °FLight rain. Mostly cloudy.12 mph90%29.90 "Hg10 mi
1:03 pm59 °FLight rain. More clouds than sun.13 mph90%29.90 "Hg8 mi
12:10 pm58 °FMostly cloudy.13 mph90%29.93 "Hg10 mi
11:53 am58 °FLight rain. More clouds than sun.13 mph90%29.93 "Hg9 mi
11:37 am57 °FLight rain. More clouds than sun.15 mph90%29.95 "Hg9 mi
10:53 am57 °FLight rain. Mostly cloudy.17 mph90%29.96 "Hg7 mi
10:30 am58 °FMostly cloudy.9 mph87%29.99 "Hg10 mi
9:53 am57 °FLight rain. Cloudy.13 mph90%29.99 "Hg8 mi
8:53 am56 °FRain. Fog.8 mph90%30.02 "Hg3 mi
7:53 am56 °FRain. Fog.10 mph90%30.01 "Hg5 mi
7:15 am55 °FLight rain. Low clouds.13 mph90%29.99 "Hg10 mi
6:53 am55 °FLight rain. Mostly cloudy.20 mph90%29.98 "Hg7 mi
5:53 am54 °FLight rain. Fog.No wind93%30.06 "Hg6 mi
5:33 am54 °FLight rain. Fog.8 mph93%30.06 "Hg5 mi
4:53 am53 °FLight rain. Fog.8 mph93%30.06 "Hg6 mi
4:20 am53 °FLight rain. Fog.6 mph93%30.04 "Hg6 mi
3:53 am53 °FLight rain. Overcast.3 mph93%30.05 "Hg7 mi
3:25 am52 °FRain. Fog.7 mph89%30.06 "Hg3 mi
2:53 am51 °FRain. Fog.6 mph89%30.06 "Hg2 mi
2:40 am51 °FRain. Fog.No wind92%30.08 "Hg2 mi
2:13 am51 °FLight rain. Fog.No wind92%30.10 "Hg3 mi
1:53 am51 °FLight rain. Fog.3 mph89%30.06 "Hg2 mi
1:25 am51 °FLight rain. Fog.3 mph89%30.09 "Hg2 mi
1:01 am51 °FLight rain. Fog.6 mph92%30.10 "Hg4 mi
12:23 am52 °FLight rain. Mostly cloudy.7 mph89%30.09 "Hg8 mi
11:53 pm
Fri, Feb 22
52 °FLight rain. Overcast.5 mph93%30.06 "Hg10 mi
11:14 pm50 °FLight rain. Fog.15 mph93%30.07 "Hg4 mi
10:53 pm50 °FLight rain. Fog.No wind93%30.11 "Hg5 mi
9:53 pm50 °FLight rain. Low clouds.7 mph89%30.12 "Hg8 mi
9:11 pm49 °FLight rain. Fog.6 mph93%30.15 "Hg2 mi
8:53 pm49 °FLight rain. Fog.6 mph90%30.17 "Hg6 mi
7:53 pm49 °FLight rain. Fog.5 mph90%30.18 "Hg6 mi
7:23 pm49 °FLight rain. Fog.7 mph90%30.19 "Hg6 mi
6:53 pm49 °FLight rain. Fog.No wind90%30.21 "Hg5 mi
5:53 pm49 °FLight rain. Fog.5 mph90%30.20 "Hg6 mi
5:20 pm49 °FLight rain. Fog.6 mph90%30.21 "Hg6 mi
Weather by CustomWeather, © 2019

See weather overview